TimeMST,TemperatureF,Dew PointF,Humidity,Sea Level PressureIn,VisibilityMPH,Wind Direction,Wind SpeedMPH,Gust SpeedMPH,PrecipitationIn,Events,Conditions,WindDirDegrees,DateUTC
12:55 AM,48.9,30.9,50,30.00,7.0,West,4.6,-,N/A,,Partly Cloudy,270,2013-02-11 07:55:00
1:55 AM,48.0,30.9,52,30.00,7.0,West,5.8,-,N/A,,Partly Cloudy,270,2013-02-11 08:55:00
2:55 AM,46.0,32.0,58,30.00,7.0,NW,4.6,-,N/A,,Partly Cloudy,310,2013-02-11 09:55:00
3:55 AM,45.0,32.0,60,30.00,7.0,Calm,Calm,-,N/A,,Partly Cloudy,0,2013-02-11 10:55:00
4:55 AM,45.0,32.0,60,29.99,7.0,West,6.9,-,N/A,,Partly Cloudy,270,2013-02-11 11:55:00
5:55 AM,44.1,32.0,63,30.01,10.0,West,6.9,-,N/A,,Scattered Clouds,270,2013-02-11 12:55:00
6:55 AM,43.0,32.0,65,30.03,10.0,WNW,5.8,-,N/A,,Scattered Clouds,290,2013-02-11 13:55:00
7:55 AM,44.1,33.1,65,30.05,10.0,Calm,Calm,-,N/A,,Mostly Cloudy,0,2013-02-11 14:55:00
8:55 AM,48.0,35.1,61,30.07,10.0,NNW,3.5,-,N/A,,Mostly Cloudy,330,2013-02-11 15:55:00
9:55 AM,54.0,28.9,38,30.09,10.0,North,15.0,-,N/A,,Mostly Cloudy,350,2013-02-11 16:55:00
10:55 AM,57.0,30.0,36,30.11,10.0,North,13.8,-,N/A,,Mostly Cloudy,360,2013-02-11 17:55:00
11:55 AM,57.0,30.9,37,30.12,10.0,North,13.8,19.6,N/A,,Mostly Cloudy,10,2013-02-11 18:55:00
12:55 PM,57.9,27.0,31,30.11,10.0,North,13.8,25.3,N/A,,Mostly Cloudy,360,2013-02-11 19:55:00
1:55 PM,60.1,24.1,25,30.10,10.0,North,12.7,20.7,N/A,,Scattered Clouds,350,2013-02-11 20:55:00
2:55 PM,61.0,23.0,23,30.09,10.0,North,13.8,18.4,N/A,,Scattered Clouds,350,2013-02-11 21:55:00
3:55 PM,61.0,19.0,20,30.09,10.0,North,9.2,19.6,N/A,,Scattered Clouds,350,2013-02-11 22:55:00
4:55 PM,61.0,17.1,18,30.09,10.0,North,11.5,-,N/A,,Scattered Clouds,350,2013-02-11 23:55:00
5:55 PM,59.0,16.0,19,30.10,10.0,NNW,9.2,-,N/A,,Partly Cloudy,340,2013-02-12 00:55:00
6:55 PM,57.0,16.0,20,30.13,10.0,NNW,5.8,-,N/A,,Clear,340,2013-02-12 01:55:00
7:55 PM,54.0,17.1,23,30.14,10.0,North,4.6,-,N/A,,Clear,350,2013-02-12 02:55:00
8:55 PM,52.0,18.0,26,30.16,10.0,Calm,Calm,-,N/A,,Clear,0,2013-02-12 03:55:00
9:55 PM,50.0,21.0,32,30.17,10.0,Calm,Calm,-,N/A,,Clear,0,2013-02-12 04:55:00
10:55 PM,48.9,19.9,32,30.18,7.0,North,4.6,-,N/A,,Clear,360,2013-02-12 05:55:00
11:55 PM,48.0,19.9,33,30.19,10.0,North,5.8,-,N/A,,Clear,360,2013-02-12 06:55:00